Year,Month,Day,Hour,Minute,Value (Times are PST for barometer in hPa)
2016,03,13,00,00,1001.52
2016,03,13,00,01,1001.52
2016,03,13,00,02,1001.52
2016,03,13,00,03,1001.52
2016,03,13,00,04,1001.52
2016,03,13,00,05,1001.52
2016,03,13,00,06,1001.52
2016,03,13,00,07,1001.52
2016,03,13,00,08,1001.52
2016,03,13,00,09,1001.52
2016,03,13,00,10,1001.52
2016,03,13,00,11,1001.52
2016,03,13,00,12,1001.52
2016,03,13,00,13,1001.52
2016,03,13,00,14,1001.51
2016,03,13,00,15,1001.25
2016,03,13,00,16,1001.25
2016,03,13,00,17,1001.25
2016,03,13,00,18,1001.25
2016,03,13,00,19,1001.25
2016,03,13,00,20,1001.25
2016,03,13,00,21,1001.25
2016,03,13,00,22,1001.25
2016,03,13,00,23,1001.25
2016,03,13,00,24,1001.25
2016,03,13,00,25,1001.25
2016,03,13,00,26,1001.25
2016,03,13,00,27,1001.25
2016,03,13,00,28,1001.25
2016,03,13,00,29,1001.26
2016,03,13,00,30,1001.39
2016,03,13,00,31,1001.39
2016,03,13,00,32,1001.39
2016,03,13,00,33,1001.39
2016,03,13,00,34,1001.39
2016,03,13,00,35,1001.39
2016,03,13,00,36,1001.39
2016,03,13,00,37,1001.39
2016,03,13,00,38,1001.39
2016,03,13,00,39,1001.39
2016,03,13,00,40,1001.39
2016,03,13,00,41,1001.39
2016,03,13,00,42,1001.39
2016,03,13,00,43,1001.39
2016,03,13,00,44,1001.39
2016,03,13,00,45,1001.29
2016,03,13,00,46,1001.29
2016,03,13,00,47,1001.29
2016,03,13,00,48,1001.29
2016,03,13,00,49,1001.29
2016,03,13,00,50,1001.29
2016,03,13,00,51,1001.29
2016,03,13,00,52,1001.29
2016,03,13,00,53,1001.29
2016,03,13,00,54,1001.29
2016,03,13,00,55,1001.29
2016,03,13,00,56,1001.29
2016,03,13,00,57,1001.29
2016,03,13,00,58,1001.29
2016,03,13,00,59,1001.29
2016,03,13,01,00,1001.29
2016,03,13,01,01,1001.29
2016,03,13,01,02,1001.29
2016,03,13,01,03,1001.29
2016,03,13,01,04,1001.29
2016,03,13,01,05,1001.29
2016,03,13,01,06,1001.29
2016,03,13,01,07,1001.29
2016,03,13,01,08,1001.29
2016,03,13,01,09,1001.29
2016,03,13,01,10,1001.29
2016,03,13,01,11,1001.29
2016,03,13,01,12,1001.29
2016,03,13,01,13,1001.29
2016,03,13,01,14,1001.29
2016,03,13,01,15,1001.22
2016,03,13,01,16,1001.22
2016,03,13,01,17,1001.22
2016,03,13,01,18,1001.22
2016,03,13,01,19,1001.22
2016,03,13,01,20,1001.22
2016,03,13,01,21,1001.22
2016,03,13,01,22,1001.22
2016,03,13,01,23,1001.22
2016,03,13,01,24,1001.22
2016,03,13,01,25,1001.22
2016,03,13,01,26,1001.22
2016,03,13,01,27,1001.22
2016,03,13,01,28,1001.22
2016,03,13,01,29,1001.21
2016,03,13,01,30,1000.98
2016,03,13,01,31,1000.98
2016,03,13,01,32,1000.98
2016,03,13,01,33,1000.98
2016,03,13,01,34,1000.98
2016,03,13,01,35,1000.98
2016,03,13,01,36,1000.98
2016,03,13,01,37,1000.98
2016,03,13,01,38,1000.98
2016,03,13,01,39,1000.98
2016,03,13,01,40,1000.98
2016,03,13,01,41,1000.98
2016,03,13,01,42,1000.98
2016,03,13,01,43,1000.98
2016,03,13,01,44,1000.97
2016,03,13,01,45,1000.85
2016,03,13,01,46,1000.85
2016,03,13,01,47,1000.85
2016,03,13,01,48,1000.85
2016,03,13,01,49,1000.85
2016,03,13,01,50,1000.85
2016,03,13,01,51,1000.85
2016,03,13,01,52,1000.85
2016,03,13,01,53,1000.85
2016,03,13,01,54,1000.85
2016,03,13,01,55,1000.85
2016,03,13,01,56,1000.85
2016,03,13,01,57,1000.85
2016,03,13,01,58,1000.85
2016,03,13,01,59,1000.83
2016,03,13,03,00,1000.61
2016,03,13,03,01,1000.61
2016,03,13,03,02,1000.61
2016,03,13,03,03,1000.61
2016,03,13,03,04,1000.61
2016,03,13,03,05,1000.61
2016,03,13,03,06,1000.61
2016,03,13,03,07,1000.61
2016,03,13,03,08,1000.61
2016,03,13,03,09,1000.61
2016,03,13,03,10,1000.61
2016,03,13,03,11,1000.61
2016,03,13,03,12,1000.61
2016,03,13,03,13,1000.61
2016,03,13,03,14,1000.59
2016,03,13,03,15,1000.27
2016,03,13,03,16,1000.27
2016,03,13,03,17,1000.27
2016,03,13,03,18,1000.27
2016,03,13,03,19,1000.27
2016,03,13,03,20,1000.27
2016,03,13,03,21,1000.27
2016,03,13,03,22,1000.27
2016,03,13,03,23,1000.27
2016,03,13,03,24,1000.27
2016,03,13,03,25,1000.27
2016,03,13,03,26,1000.27
2016,03,13,03,27,1000.27
2016,03,13,03,28,1000.27
2016,03,13,03,29,1000.26
2016,03,13,03,30,1000.03
2016,03,13,03,31,1000.03
2016,03,13,03,32,1000.03
2016,03,13,03,33,1000.03
2016,03,13,03,34,1000.03
2016,03,13,03,35,1000.03
2016,03,13,03,36,1000.03
2016,03,13,03,37,1000.03
2016,03,13,03,38,1000.03
2016,03,13,03,39,1000.03
2016,03,13,03,40,1000.03
2016,03,13,03,41,1000.03
2016,03,13,03,42,1000.03
2016,03,13,03,43,1000.03
2016,03,13,03,44,1000.02
2016,03,13,03,45,999.87
2016,03,13,03,46,999.87
2016,03,13,03,47,999.87
2016,03,13,03,48,999.87
2016,03,13,03,49,999.87
2016,03,13,03,50,999.87
2016,03,13,03,51,999.87
2016,03,13,03,52,999.87
2016,03,13,03,53,999.87
2016,03,13,03,54,999.87
2016,03,13,03,55,999.87
2016,03,13,03,56,999.87
2016,03,13,03,57,999.87
2016,03,13,03,58,999.87
2016,03,13,03,59,999.86
2016,03,13,04,00,999.70
2016,03,13,04,01,999.70
2016,03,13,04,02,999.70
2016,03,13,04,03,999.70
2016,03,13,04,04,999.70
2016,03,13,04,05,999.70
2016,03,13,04,06,999.70
2016,03,13,04,07,999.70
2016,03,13,04,08,999.70
2016,03,13,04,09,999.70
2016,03,13,04,10,999.70
2016,03,13,04,11,999.70
2016,03,13,04,12,999.70
2016,03,13,04,13,999.70
2016,03,13,04,14,999.68
2016,03,13,04,15,999.39
2016,03,13,04,16,999.39
2016,03,13,04,17,999.39
2016,03,13,04,18,999.39
2016,03,13,04,19,999.39
2016,03,13,04,20,999.39
2016,03,13,04,21,999.39
2016,03,13,04,22,999.39
2016,03,13,04,23,999.39
2016,03,13,04,24,999.39
2016,03,13,04,25,999.39
2016,03,13,04,26,999.39
2016,03,13,04,27,999.39
2016,03,13,04,28,999.39
2016,03,13,04,29,999.38
2016,03,13,04,30,999.22
2016,03,13,04,31,999.22
2016,03,13,04,32,999.22
2016,03,13,04,33,999.22
2016,03,13,04,34,999.22
2016,03,13,04,35,999.22
2016,03,13,04,36,999.22
2016,03,13,04,37,999.22
2016,03,13,04,38,999.22
2016,03,13,04,39,999.22
2016,03,13,04,40,999.22
2016,03,13,04,41,999.22
2016,03,13,04,42,999.22
2016,03,13,04,43,999.22
2016,03,13,04,44,999.22
2016,03,13,04,45,999.15
2016,03,13,04,46,999.15
2016,03,13,04,47,999.15
2016,03,13,04,48,999.15
2016,03,13,04,49,999.15
2016,03,13,04,50,999.15
2016,03,13,04,51,999.15
2016,03,13,04,52,999.15
2016,03,13,04,53,999.15
2016,03,13,04,54,999.15
2016,03,13,04,55,999.15
2016,03,13,04,56,999.15
2016,03,13,04,57,999.15
2016,03,13,04,58,999.15
2016,03,13,04,59,999.13
2016,03,13,05,00,998.75
2016,03,13,05,01,998.75
2016,03,13,05,02,998.75
2016,03,13,05,03,998.75
2016,03,13,05,04,998.75
2016,03,13,05,05,998.75
2016,03,13,05,06,998.75
2016,03,13,05,07,998.75
2016,03,13,05,08,998.75
2016,03,13,05,09,998.75
2016,03,13,05,10,998.75
2016,03,13,05,11,998.75
2016,03,13,05,12,998.75
2016,03,13,05,13,998.75
2016,03,13,05,14,998.74
2016,03,13,05,15,998.61
2016,03,13,05,16,998.61
2016,03,13,05,17,998.61
2016,03,13,05,18,998.61
2016,03,13,05,19,998.61
2016,03,13,05,20,998.61
2016,03,13,05,21,998.61
2016,03,13,05,22,998.61
2016,03,13,05,23,998.61
2016,03,13,05,24,998.61
2016,03,13,05,25,998.61
2016,03,13,05,26,998.61
2016,03,13,05,27,998.61
2016,03,13,05,28,998.61
2016,03,13,05,29,998.61
2016,03,13,05,30,998.38
2016,03,13,05,31,998.38
2016,03,13,05,32,998.38
2016,03,13,05,33,998.38
2016,03,13,05,34,998.38
2016,03,13,05,35,998.38
2016,03,13,05,36,998.38
2016,03,13,05,37,998.38
2016,03,13,05,38,998.38
2016,03,13,05,39,998.38
2016,03,13,05,40,998.38
2016,03,13,05,41,998.38
2016,03,13,05,42,998.38
2016,03,13,05,43,998.38
2016,03,13,05,44,998.38
2016,03,13,05,45,998.14
2016,03,13,05,46,998.14
2016,03,13,05,47,998.14
2016,03,13,05,48,998.14
2016,03,13,05,49,998.14
2016,03,13,05,50,998.14
2016,03,13,05,51,998.14
2016,03,13,05,52,998.14
2016,03,13,05,53,998.14
2016,03,13,05,54,998.14
2016,03,13,05,55,998.14
2016,03,13,05,56,998.14
2016,03,13,05,57,998.14
2016,03,13,05,58,998.14
2016,03,13,05,59,998.14
2016,03,13,06,00,998.10
2016,03,13,06,01,998.10
2016,03,13,06,02,998.10
2016,03,13,06,03,998.10
2016,03,13,06,04,998.10
2016,03,13,06,05,998.10
2016,03,13,06,06,998.10
2016,03,13,06,07,998.10
2016,03,13,06,08,998.10
2016,03,13,06,09,998.10
2016,03,13,06,10,998.10
2016,03,13,06,11,998.10
2016,03,13,06,12,998.10
2016,03,13,06,13,998.10
2016,03,13,06,14,998.09
2016,03,13,06,15,997.97
2016,03,13,06,16,997.97
2016,03,13,06,17,997.97
2016,03,13,06,18,997.97
2016,03,13,06,19,997.97
2016,03,13,06,20,997.97
2016,03,13,06,21,997.97
2016,03,13,06,22,997.97
2016,03,13,06,23,997.97
2016,03,13,06,24,997.97
2016,03,13,06,25,997.97
2016,03,13,06,26,997.97
2016,03,13,06,27,997.97
2016,03,13,06,28,997.97
2016,03,13,06,29,997.97
2016,03,13,06,30,997.46
2016,03,13,06,31,997.46
2016,03,13,06,32,997.46
2016,03,13,06,33,997.46
2016,03,13,06,34,997.46
2016,03,13,06,35,997.46
2016,03,13,06,36,997.46
2016,03,13,06,37,997.46
2016,03,13,06,38,997.46
2016,03,13,06,39,997.46
2016,03,13,06,40,997.46
2016,03,13,06,41,997.46
2016,03,13,06,42,997.46
2016,03,13,06,43,997.46
2016,03,13,06,44,997.46
2016,03,13,06,45,997.09
2016,03,13,06,46,997.09
2016,03,13,06,47,997.09
2016,03,13,06,48,997.09
2016,03,13,06,49,997.09
2016,03,13,06,50,997.09
2016,03,13,06,51,997.09
2016,03,13,06,52,997.09
2016,03,13,06,53,997.09
2016,03,13,06,54,997.09
2016,03,13,06,55,997.09
2016,03,13,06,56,997.09
2016,03,13,06,57,997.09
2016,03,13,06,58,997.09
2016,03,13,06,59,997.09
2016,03,13,07,00,996.58
2016,03,13,07,01,996.58
2016,03,13,07,02,996.58
2016,03,13,07,03,996.58
2016,03,13,07,04,996.58
2016,03,13,07,05,996.58
2016,03,13,07,06,996.58
2016,03,13,07,07,996.58
2016,03,13,07,08,996.58
2016,03,13,07,09,996.58
2016,03,13,07,10,996.58
2016,03,13,07,11,996.58
2016,03,13,07,12,996.58
2016,03,13,07,13,996.58
2016,03,13,07,14,996.55
2016,03,13,07,15,996.04
2016,03,13,07,16,996.04
2016,03,13,07,17,996.04
2016,03,13,07,18,996.04
2016,03,13,07,19,996.04
2016,03,13,07,20,996.04
2016,03,13,07,21,996.04
2016,03,13,07,22,996.04
2016,03,13,07,23,996.04
2016,03,13,07,24,996.04
2016,03,13,07,25,996.04
2016,03,13,07,26,996.04
2016,03,13,07,27,996.04
2016,03,13,07,28,996.04
2016,03,13,07,29,996.02
2016,03,13,07,30,995.53
2016,03,13,07,31,995.53
2016,03,13,07,32,995.53
2016,03,13,07,33,995.53
2016,03,13,07,34,995.53
2016,03,13,07,35,995.53
2016,03,13,07,36,995.53
2016,03,13,07,37,995.53
2016,03,13,07,38,995.53
2016,03,13,07,39,995.53
2016,03,13,07,40,995.53
2016,03,13,07,41,995.53
2016,03,13,07,42,995.53
2016,03,13,07,43,995.53
2016,03,13,07,44,995.52
2016,03,13,07,45,995.23
2016,03,13,07,46,995.23
2016,03,13,07,47,995.23
2016,03,13,07,48,995.23
2016,03,13,07,49,995.23
2016,03,13,07,50,995.23
2016,03,13,07,51,995.23
2016,03,13,07,52,995.23
2016,03,13,07,53,995.23
2016,03,13,07,54,995.23
2016,03,13,07,55,995.23
2016,03,13,07,56,995.23
2016,03,13,07,57,995.23
2016,03,13,07,58,995.23
2016,03,13,07,59,995.23
2016,03,13,08,00,994.58
2016,03,13,08,01,994.58
2016,03,13,08,02,994.58
2016,03,13,08,03,994.58
2016,03,13,08,04,994.58
2016,03,13,08,05,994.58
2016,03,13,08,06,994.58
2016,03,13,08,07,994.58
2016,03,13,08,08,994.58
2016,03,13,08,09,994.58
2016,03,13,08,10,994.58
2016,03,13,08,11,994.58
2016,03,13,08,12,994.58
2016,03,13,08,13,994.58
2016,03,13,08,14,994.58
2016,03,13,08,15,994.07
2016,03,13,08,16,994.07
2016,03,13,08,17,994.07
2016,03,13,08,18,994.07
2016,03,13,08,19,994.07
2016,03,13,08,20,994.07
2016,03,13,08,21,994.07
2016,03,13,08,22,994.07
2016,03,13,08,23,994.07
2016,03,13,08,24,994.07
2016,03,13,08,25,994.07
2016,03,13,08,26,994.07
2016,03,13,08,27,994.07
2016,03,13,08,28,994.07
2016,03,13,08,29,994.07
2016,03,13,08,30,993.70
2016,03,13,08,31,993.70
2016,03,13,08,32,993.70
2016,03,13,08,33,993.70
2016,03,13,08,34,993.70
2016,03,13,08,35,993.70
2016,03,13,08,36,993.70
2016,03,13,08,37,993.70
2016,03,13,08,38,993.70
2016,03,13,08,39,993.70
2016,03,13,08,40,993.70
2016,03,13,08,41,993.70
2016,03,13,08,42,993.70
2016,03,13,08,43,993.70
2016,03,13,08,44,993.70
2016,03,13,08,45,993.26
2016,03,13,08,46,993.26
2016,03,13,08,47,993.26
2016,03,13,08,48,993.26
2016,03,13,08,49,993.26
2016,03,13,08,50,993.26
2016,03,13,08,51,993.26
2016,03,13,08,52,993.26
2016,03,13,08,53,993.26
2016,03,13,08,54,993.26
2016,03,13,08,55,993.26
2016,03,13,08,56,993.26
2016,03,13,08,57,993.26
2016,03,13,08,58,993.26
2016,03,13,08,59,993.26
2016,03,13,09,00,992.75
2016,03,13,09,01,992.75
2016,03,13,09,02,992.75
2016,03,13,09,03,992.75
2016,03,13,09,04,992.75
2016,03,13,09,05,992.75
2016,03,13,09,06,992.75
2016,03,13,09,07,992.75
2016,03,13,09,08,992.75
2016,03,13,09,09,992.75
2016,03,13,09,10,992.75
2016,03,13,09,11,992.75
2016,03,13,09,12,992.75
2016,03,13,09,13,992.75
2016,03,13,09,14,992.75
2016,03,13,09,15,992.11
2016,03,13,09,16,992.11
2016,03,13,09,17,992.11
2016,03,13,09,18,992.11
2016,03,13,09,19,992.11
2016,03,13,09,20,992.11
2016,03,13,09,21,992.11
2016,03,13,09,22,992.11
2016,03,13,09,23,992.11
2016,03,13,09,24,992.11
2016,03,13,09,25,992.11
2016,03,13,09,26,992.11
2016,03,13,09,27,992.11
2016,03,13,09,28,992.11
2016,03,13,09,29,992.11
2016,03,13,09,30,991.47
2016,03,13,09,31,991.47
2016,03,13,09,32,991.47
2016,03,13,09,33,991.47
2016,03,13,09,34,991.47
2016,03,13,09,35,991.47
2016,03,13,09,36,991.47
2016,03,13,09,37,991.47
2016,03,13,09,38,991.47
2016,03,13,09,39,991.47
2016,03,13,09,40,991.47
2016,03,13,09,41,991.47
2016,03,13,09,42,991.47
2016,03,13,09,43,991.47
2016,03,13,09,44,991.41
2016,03,13,09,45,990.28
2016,03,13,09,46,990.28
2016,03,13,09,47,990.28
2016,03,13,09,48,990.28
2016,03,13,09,49,990.28
2016,03,13,09,50,990.28
2016,03,13,09,51,990.28
2016,03,13,09,52,990.28
2016,03,13,09,53,990.28
2016,03,13,09,54,990.28
2016,03,13,09,55,990.28
2016,03,13,09,56,990.28
2016,03,13,09,57,990.28
2016,03,13,09,58,990.28
2016,03,13,09,59,990.28
2016,03,13,10,00,990.25
2016,03,13,10,01,990.25
2016,03,13,10,02,990.25
2016,03,13,10,03,990.25
2016,03,13,10,04,990.25
2016,03,13,10,05,990.25
2016,03,13,10,06,990.25
2016,03,13,10,07,990.25
2016,03,13,10,08,990.25
2016,03,13,10,09,990.25
2016,03,13,10,10,990.25
2016,03,13,10,11,990.25
2016,03,13,10,12,990.25
2016,03,13,10,13,990.25
2016,03,13,10,14,990.25
2016,03,13,10,15,989.91
2016,03,13,10,16,989.91
2016,03,13,10,17,989.91
2016,03,13,10,18,989.91
2016,03,13,10,19,989.91
2016,03,13,10,20,989.91
2016,03,13,10,21,989.91
2016,03,13,10,22,989.91
2016,03,13,10,23,989.91
2016,03,13,10,24,989.91
2016,03,13,10,25,989.91
2016,03,13,10,26,989.91
2016,03,13,10,27,989.91
2016,03,13,10,28,989.91
2016,03,13,10,29,989.91
2016,03,13,10,30,989.67
2016,03,13,10,31,989.67
2016,03,13,10,32,989.67
2016,03,13,10,33,989.67
2016,03,13,10,34,989.67
2016,03,13,10,35,989.67
2016,03,13,10,36,989.67
2016,03,13,10,37,989.67
2016,03,13,10,38,989.67
2016,03,13,10,39,989.67
2016,03,13,10,40,989.67
2016,03,13,10,41,989.67
2016,03,13,10,42,989.67
2016,03,13,10,43,989.67
2016,03,13,10,44,989.67
2016,03,13,10,45,989.50
2016,03,13,10,46,989.50
2016,03,13,10,47,989.50
2016,03,13,10,48,989.50
2016,03,13,10,49,989.50
2016,03,13,10,50,989.50
2016,03,13,10,51,989.50
2016,03,13,10,52,989.50
2016,03,13,10,53,989.50
2016,03,13,10,54,989.50
2016,03,13,10,55,989.50
2016,03,13,10,56,989.50
2016,03,13,10,57,989.50
2016,03,13,10,58,989.50
2016,03,13,10,59,989.50
2016,03,13,11,00,989.27
2016,03,13,11,01,989.27
2016,03,13,11,02,989.27
2016,03,13,11,03,989.27
2016,03,13,11,04,989.27
2016,03,13,11,05,989.27
2016,03,13,11,06,989.27
2016,03,13,11,07,989.27
2016,03,13,11,08,989.27
2016,03,13,11,09,989.27
2016,03,13,11,10,989.27
2016,03,13,11,11,989.27
2016,03,13,11,12,989.27
2016,03,13,11,13,989.27
2016,03,13,11,14,989.26
2016,03,13,11,15,989.10
2016,03,13,11,16,989.10
2016,03,13,11,17,989.10
2016,03,13,11,18,989.10
2016,03,13,11,19,989.10
2016,03,13,11,20,989.10
2016,03,13,11,21,989.10
2016,03,13,11,22,989.10
2016,03,13,11,23,989.10
2016,03,13,11,24,989.10
2016,03,13,11,25,989.10
2016,03,13,11,26,989.10
2016,03,13,11,27,989.10
2016,03,13,11,28,989.10
2016,03,13,11,29,989.10
2016,03,13,11,30,988.79
2016,03,13,11,31,988.79
2016,03,13,11,32,988.79
2016,03,13,11,33,988.79
2016,03,13,11,34,988.79
2016,03,13,11,35,988.79
2016,03,13,11,36,988.79
2016,03,13,11,37,988.79
2016,03,13,11,38,988.79
2016,03,13,11,39,988.79
2016,03,13,11,40,988.79
2016,03,13,11,41,988.79
2016,03,13,11,42,988.79
2016,03,13,11,43,988.79
2016,03,13,11,44,988.78
2016,03,13,11,45,988.66
2016,03,13,11,46,988.66
2016,03,13,11,47,988.66
2016,03,13,11,48,988.66
2016,03,13,11,49,988.66
2016,03,13,11,50,988.66
2016,03,13,11,51,988.66
2016,03,13,11,52,988.66
2016,03,13,11,53,988.66
2016,03,13,11,54,988.66
2016,03,13,11,55,988.66
2016,03,13,11,56,988.66
2016,03,13,11,57,988.66
2016,03,13,11,58,988.66
2016,03,13,11,59,988.66
2016,03,13,12,00,988.42
2016,03,13,12,01,988.42
2016,03,13,12,02,988.42
2016,03,13,12,03,988.42
2016,03,13,12,04,988.42
2016,03,13,12,05,988.42
2016,03,13,12,06,988.42
2016,03,13,12,07,988.42
2016,03,13,12,08,988.42
2016,03,13,12,09,988.42
2016,03,13,12,10,988.42
2016,03,13,12,11,988.42
2016,03,13,12,12,988.42
2016,03,13,12,13,988.42
2016,03,13,12,14,988.42
2016,03,13,12,15,988.18
2016,03,13,12,16,988.18
2016,03,13,12,17,988.18
2016,03,13,12,18,988.18
2016,03,13,12,19,988.18
2016,03,13,12,20,988.18
2016,03,13,12,21,988.18
2016,03,13,12,22,988.18
2016,03,13,12,23,988.18
2016,03,13,12,24,988.18
2016,03,13,12,25,988.18
2016,03,13,12,26,988.18
2016,03,13,12,27,988.18
2016,03,13,12,28,988.18
2016,03,13,12,29,988.18
2016,03,13,12,30,987.89
2016,03,13,12,31,987.88
2016,03,13,12,32,987.88
2016,03,13,12,33,987.88
2016,03,13,12,34,987.88
2016,03,13,12,35,987.88
2016,03,13,12,36,987.88
2016,03,13,12,37,987.88
2016,03,13,12,38,987.88
2016,03,13,12,39,987.88
2016,03,13,12,40,987.88
2016,03,13,12,41,987.88
2016,03,13,12,42,987.88
2016,03,13,12,43,987.88
2016,03,13,12,44,987.88
2016,03,13,12,45,987.27
2016,03,13,12,46,987.27
2016,03,13,12,47,987.27
2016,03,13,12,48,987.27
2016,03,13,12,49,987.27
2016,03,13,12,50,987.27
2016,03,13,12,51,987.27
2016,03,13,12,52,987.27
2016,03,13,12,53,987.27
2016,03,13,12,54,987.27
2016,03,13,12,55,987.27
2016,03,13,12,56,987.27
2016,03,13,12,57,987.27
2016,03,13,12,58,987.27
2016,03,13,12,59,987.27
2016,03,13,13,00,986.49
2016,03,13,13,01,986.49
2016,03,13,13,02,986.49
2016,03,13,13,03,986.49
2016,03,13,13,04,986.49
2016,03,13,13,05,986.49
2016,03,13,13,06,986.49
2016,03,13,13,07,986.49
2016,03,13,13,08,986.49
2016,03,13,13,09,986.49
2016,03,13,13,10,986.49
2016,03,13,13,11,986.49
2016,03,13,13,12,986.49
2016,03,13,13,13,986.49
2016,03,13,13,14,986.49
2016,03,13,13,15,985.68
2016,03,13,13,16,985.64
2016,03,13,13,17,985.64
2016,03,13,13,18,985.64
2016,03,13,13,19,985.64
2016,03,13,13,20,985.64
2016,03,13,13,21,985.64
2016,03,13,13,22,985.64
2016,03,13,13,23,985.64
2016,03,13,13,24,985.64
2016,03,13,13,25,985.64
2016,03,13,13,26,985.64
2016,03,13,13,27,985.64
2016,03,13,13,28,985.64
2016,03,13,13,29,985.64
2016,03,13,13,30,984.84
2016,03,13,13,31,984.80
2016,03,13,13,32,984.80
2016,03,13,13,33,984.80
2016,03,13,13,34,984.80
2016,03,13,13,35,984.80
2016,03,13,13,36,984.80
2016,03,13,13,37,984.80
2016,03,13,13,38,984.80
2016,03,13,13,39,984.80
2016,03,13,13,40,984.80
2016,03,13,13,41,984.80
2016,03,13,13,42,984.80
2016,03,13,13,43,984.80
2016,03,13,13,44,984.80
2016,03,13,13,45,984.02
2016,03,13,13,46,984.02
2016,03,13,13,47,984.02
2016,03,13,13,48,984.02
2016,03,13,13,49,984.02
2016,03,13,13,50,984.02
2016,03,13,13,51,984.02
2016,03,13,13,52,984.02
2016,03,13,13,53,984.02
2016,03,13,13,54,984.02
2016,03,13,13,55,984.02
2016,03,13,13,56,984.02
2016,03,13,13,57,984.02
2016,03,13,13,58,984.02
2016,03,13,13,59,984.02
2016,03,13,14,00,983.37
2016,03,13,14,01,983.37
2016,03,13,14,02,983.37
2016,03,13,14,03,983.37
2016,03,13,14,04,983.37
2016,03,13,14,05,983.37
2016,03,13,14,06,983.37
2016,03,13,14,07,983.37
2016,03,13,14,08,983.37
2016,03,13,14,09,983.37
2016,03,13,14,10,983.37
2016,03,13,14,11,983.37
2016,03,13,14,12,983.37
2016,03,13,14,13,983.37
2016,03,13,14,14,983.37
2016,03,13,14,15,982.73
2016,03,13,14,16,982.73
2016,03,13,14,17,982.73
2016,03,13,14,18,982.73
2016,03,13,14,19,982.73
2016,03,13,14,20,982.73
2016,03,13,14,21,982.73
2016,03,13,14,22,982.73
2016,03,13,14,23,982.73
2016,03,13,14,24,982.73
2016,03,13,14,25,982.73
2016,03,13,14,26,982.73
2016,03,13,14,27,982.73
2016,03,13,14,28,982.73
2016,03,13,14,29,982.73
2016,03,13,14,30,982.31
2016,03,13,14,31,982.29
2016,03,13,14,32,982.29
2016,03,13,14,33,982.29
2016,03,13,14,34,982.29
2016,03,13,14,35,982.29
2016,03,13,14,36,982.29
2016,03,13,14,37,982.29
2016,03,13,14,38,982.29
2016,03,13,14,39,982.29
2016,03,13,14,40,982.29
2016,03,13,14,41,982.29
2016,03,13,14,42,982.29
2016,03,13,14,43,982.29
2016,03,13,14,44,982.29
2016,03,13,14,45,981.42
2016,03,13,14,46,981.38
2016,03,13,14,47,981.38
2016,03,13,14,48,981.38
2016,03,13,14,49,981.38
2016,03,13,14,50,981.38
2016,03,13,14,51,981.38
2016,03,13,14,52,981.38
2016,03,13,14,53,981.38
2016,03,13,14,54,981.38
2016,03,13,14,55,981.38
2016,03,13,14,56,981.38
2016,03,13,14,57,981.38
2016,03,13,14,58,981.38
2016,03,13,14,59,981.38
2016,03,13,15,00,980.96
2016,03,13,15,01,980.94
2016,03,13,15,02,980.94
2016,03,13,15,03,980.94
2016,03,13,15,04,980.94
2016,03,13,15,05,980.94
2016,03,13,15,06,980.94
2016,03,13,15,07,980.94
2016,03,13,15,08,980.94
2016,03,13,15,09,980.94
2016,03,13,15,10,980.94
2016,03,13,15,11,980.94
2016,03,13,15,12,980.94
2016,03,13,15,13,980.94
2016,03,13,15,14,980.94
2016,03,13,15,15,980.81
2016,03,13,15,16,980.80
2016,03,13,15,17,980.80
2016,03,13,15,18,980.80
2016,03,13,15,19,980.80
2016,03,13,15,20,980.80
2016,03,13,15,21,980.80
2016,03,13,15,22,980.80
2016,03,13,15,23,980.80
2016,03,13,15,24,980.80
2016,03,13,15,25,980.80
2016,03,13,15,26,980.80
2016,03,13,15,27,980.80
2016,03,13,15,28,980.80
2016,03,13,15,29,980.80
2016,03,13,15,30,981.35
2016,03,13,15,31,981.38
2016,03,13,15,32,981.38
2016,03,13,15,33,981.38
2016,03,13,15,34,981.38
2016,03,13,15,35,981.38
2016,03,13,15,36,981.38
2016,03,13,15,37,981.38
2016,03,13,15,38,981.38
2016,03,13,15,39,981.38
2016,03,13,15,40,981.38
2016,03,13,15,41,981.38
2016,03,13,15,42,981.38
2016,03,13,15,43,981.38
2016,03,13,15,44,981.38
2016,03,13,15,45,981.41
2016,03,13,15,46,981.41
2016,03,13,15,47,981.41
2016,03,13,15,48,981.41
2016,03,13,15,49,981.41
2016,03,13,15,50,981.41
2016,03,13,15,51,981.41
2016,03,13,15,52,981.41
2016,03,13,15,53,981.41
2016,03,13,15,54,981.41
2016,03,13,15,55,981.41
2016,03,13,15,56,981.41
2016,03,13,15,57,981.41
2016,03,13,15,58,981.41
2016,03,13,15,59,981.41
2016,03,13,16,00,981.51
2016,03,13,16,01,981.51
2016,03,13,16,02,981.51
2016,03,13,16,03,981.51
2016,03,13,16,04,981.51
2016,03,13,16,05,981.51
2016,03,13,16,06,981.51
2016,03,13,16,07,981.51
2016,03,13,16,08,981.51
2016,03,13,16,09,981.51
2016,03,13,16,10,981.51
2016,03,13,16,11,981.51
2016,03,13,16,12,981.51
2016,03,13,16,13,981.51
2016,03,13,16,14,981.51
2016,03,13,16,15,981.85
2016,03,13,16,16,981.85
2016,03,13,16,17,981.85
2016,03,13,16,18,981.85
2016,03,13,16,19,981.85
2016,03,13,16,20,981.85
2016,03,13,16,21,981.85
2016,03,13,16,22,981.85
2016,03,13,16,23,981.85
2016,03,13,16,24,981.85
2016,03,13,16,25,981.85
2016,03,13,16,26,981.85
2016,03,13,16,27,981.85
2016,03,13,16,28,981.85
2016,03,13,16,29,981.85
2016,03,13,16,30,982.56
2016,03,13,16,31,982.56
2016,03,13,16,32,982.56
2016,03,13,16,33,982.56
2016,03,13,16,34,982.56
2016,03,13,16,35,982.56
2016,03,13,16,36,982.56
2016,03,13,16,37,982.56
2016,03,13,16,38,982.56
2016,03,13,16,39,982.56
2016,03,13,16,40,982.56
2016,03,13,16,41,982.56
2016,03,13,16,42,982.56
2016,03,13,16,43,982.56
2016,03,13,16,44,982.56
2016,03,13,16,45,982.88
2016,03,13,16,46,982.90
2016,03,13,16,47,982.90
2016,03,13,16,48,982.90
2016,03,13,16,49,982.90
2016,03,13,16,50,982.90
2016,03,13,16,51,982.90
2016,03,13,16,52,982.90
2016,03,13,16,53,982.90
2016,03,13,16,54,982.90
2016,03,13,16,55,982.90
2016,03,13,16,56,982.90
2016,03,13,16,57,982.90
2016,03,13,16,58,982.90
2016,03,13,16,59,982.90
2016,03,13,17,00,983.35
2016,03,13,17,01,983.37
2016,03,13,17,02,983.37
2016,03,13,17,03,983.37
2016,03,13,17,04,983.37
2016,03,13,17,05,983.37
2016,03,13,17,06,983.37
2016,03,13,17,07,983.37
2016,03,13,17,08,983.37
2016,03,13,17,09,983.37
2016,03,13,17,10,983.37
2016,03,13,17,11,983.37
2016,03,13,17,12,983.37
2016,03,13,17,13,983.37
2016,03,13,17,14,983.37
2016,03,13,17,15,983.99
2016,03,13,17,16,984.02
2016,03,13,17,17,984.02
2016,03,13,17,18,984.02
2016,03,13,17,19,984.02
2016,03,13,17,20,984.02
2016,03,13,17,21,984.02
2016,03,13,17,22,984.02
2016,03,13,17,26,984.02
2016,03,13,17,27,984.02
2016,03,13,17,28,984.02
2016,03,13,17,29,984.02
2016,03,13,17,30,985.03
2016,03,13,17,31,985.03
2016,03,13,17,32,985.03